Weather History for KHON - January, 2013

Change the Weather History Date:

Saturday, January 5, 2013

  Actual Average Record
Temperature  
Mean Temperature 13 °F 16 °F  
Max Temperature 26 °F 26 °F 65 °F (2012)
Min Temperature -1 °F 7 °F -35 °F (1884)
Degree Days  
Heating Degree Days 52 49  
Month to date heating degree days 246 243  
Since 1 July heating degree days 3320 3363  
Cooling Degree Days 0 0  
Month to date cooling degree days 0 0  
Year to date cooling degree days 0 0  
Moisture  
Dew Point 9 °F    
Average Humidity 80    
Maximum Humidity 92    
Minimum Humidity 68    
Precipitation  
Precipitation T in 0.02 in 0.21 in (2015)
Month to date precipitation T 0.09  
Year to date precipitation T 0.09  
Snow  
Snow T in 0.30 in 2.50 in (1951)
Month to date snowfall T 1.3  
Since 1 July snowfall 14.1 17.6  
Snow Depth 5.00 in    
Sea Level Pressure  
Sea Level Pressure 30.11 in    
Wind  
Wind Speed 11 mph (NW)    
Max Wind Speed 30 mph    
Max Gust Speed 36 mph    
Visibility 8 miles    
Events Snow    
T = Trace of Precipitation, MM = Missing Value Source: NWS Daily Summary

Daily Weather History Graph

Daily Weather History Graph

Search for Another Location

Airport or City:

Trip Planner

Search our weather history database for the weather conditions in past years. The results will help you decide how hot, cold, wet, or windy it might be!

Date:

Astronomy

Jan. 05, 2013 Rise Set
Actual Time 8:08 AM CST 5:08 PM CST
Civil Twilight 7:35 AM CST 5:41 PM CST
Nautical Twilight 6:59 AM CST 6:17 PM CST
Astronomical Twilight 6:24 AM CST 6:53 PM CST
Moon 1:08 AM CST (1/5) 12:05 PM CST (1/5)
Length of Visible Light 10h 05m
Length of Day
8h 59m
Last Quarter, 44% of the Moon is Illuminated
Jan 5
Last Quarter
Jan 11
New
Jan 18
First Quarter
Jan 26
Full
Feb 3
Last Quarter

Hourly Weather History & Observations

Time (CST) Temp. Windchill Dew Point Humidity Pressure Visibility Wind Dir Wind Speed Gust Speed Precip Events Conditions
12:55 AM 6.1 °F - 3.0 °F 87% 30.08 in 10.0 mi Calm Calm - N/A   Clear
1:55 AM 3.9 °F - -0.0 °F 84% 30.07 in 10.0 mi Calm Calm - N/A   Clear
2:55 AM 3.0 °F - 1.0 °F 91% 30.07 in 10.0 mi Calm Calm - N/A   Clear
3:55 AM -0.0 °F -7.9 °F -2.9 °F 88% 30.06 in 10.0 mi WNW 3.5 mph - N/A   Clear
4:55 AM 1.0 °F -6.7 °F -2.9 °F 83% 30.04 in 10.0 mi WNW 3.5 mph - N/A   Clear
5:55 AM 3.9 °F - -0.0 °F 84% 30.03 in 10.0 mi Calm Calm - N/A   Clear
6:55 AM 3.0 °F - -0.9 °F 84% 30.04 in 10.0 mi Calm Calm - N/A   Clear
7:55 AM 5.0 °F - 1.9 °F 87% 30.04 in 10.0 mi Calm Calm - N/A   Clear
8:55 AM 7.0 °F - 3.0 °F 84% 30.06 in 10.0 mi Calm Calm - N/A   Clear
9:55 AM 12.9 °F 5.2 °F 8.1 °F 81% 30.06 in 10.0 mi West 4.6 mph - N/A   Clear
10:55 AM 26.1 °F 14.5 °F 18.0 °F 71% 30.06 in 10.0 mi NW 13.8 mph - N/A   Clear
11:55 AM 25.0 °F 12.6 °F 18.0 °F 75% 30.05 in 10.0 mi NW 15.0 mph - N/A   Clear
12:16 PM 24.8 °F 11.5 °F 17.6 °F 74% 29.99 in 10.0 mi NW 17.3 mph - N/A   Mostly Cloudy
12:55 PM 24.1 °F 8.7 °F 18.0 °F 77% 30.06 in 6.0 mi NW 23.0 mph - N/A   Haze
1:55 PM 21.9 °F 5.5 °F 17.1 °F 82% 30.07 in 4.0 mi NW 24.2 mph 31.1 mph 0.00 in Snow Light Snow
2:07 PM 21.2 °F 3.5 °F 17.6 °F 86% 30.00 in 2.0 mi NW 27.6 mph - 0.00 in Snow Light Snow
2:55 PM 19.0 °F 1.3 °F 14.0 °F 81% 30.09 in 4.0 mi NW 25.3 mph 33.4 mph 0.00 in Snow Blowing Snow
3:51 PM 15.8 °F -2.7 °F 10.4 °F 79% 30.04 in 2.5 mi NNW 24.2 mph - 0.00 in Snow Light Snow
3:55 PM 16.0 °F -2.5 °F 10.9 °F 81% 30.13 in 3.0 mi NNW 24.2 mph - 0.00 in Snow Light Snow
4:14 PM 15.8 °F -1.5 °F 10.4 °F 79% 30.06 in 5.0 mi NNW 20.7 mph - 0.00 in   Overcast
4:55 PM 17.1 °F -0.3 °F 12.0 °F 81% 30.17 in 5.0 mi NNW 21.9 mph 27.6 mph 0.00 in   Overcast
5:42 PM 19.4 °F 2.8 °F 14.0 °F 80% 30.11 in 10.0 mi NNW 21.9 mph 27.6 mph 0.00 in   Overcast
5:55 PM 19.0 °F 3.6 °F 15.1 °F 85% 30.20 in 8.0 mi NNW 18.4 mph 28.8 mph 0.00 in   Overcast
6:55 PM 19.9 °F 3.5 °F 15.1 °F 81% 30.23 in 10.0 mi NNW 21.9 mph - N/A   Overcast
7:55 PM 18.0 °F 2.2 °F 14.0 °F 84% 30.26 in 10.0 mi NW 18.4 mph - N/A   Overcast
8:26 PM 15.8 °F 2.7 °F 12.2 °F 86% 30.18 in 10.0 mi WNW 11.5 mph - N/A   Scattered Clouds
8:55 PM 12.9 °F -0.9 °F 10.0 °F 88% 30.28 in 10.0 mi NW 11.5 mph - N/A   Clear
9:55 PM 10.0 °F -1.9 °F 7.0 °F 87% 30.26 in 10.0 mi WNW 8.1 mph - N/A   Clear
10:55 PM 8.1 °F -5.3 °F 6.1 °F 92% 30.26 in 10.0 mi West 9.2 mph - N/A   Clear
11:55 PM 7.0 °F -3.3 °F 3.9 °F 87% 30.26 in 10.0 mi West 5.8 mph - N/A   Clear